Location: Brunembert
(50.7122°N, 1.8935°E)
Time: 10:06:24
(UTC+00:00)

USA 281 - Pass Details

Date: 22 April 2021
Orbit: 1078 x 1081 km, 106.0° (Epoch: 02 May)

Event Time Altitude Azimuth Distance (km) Brightness Sun altitude
Exits shadow 23:43:10 43° 121° (ESE) 1,473 3.6 -26.7°
Maximum altitude 23:45:20 66° 57° (ENE) 1,172 3.4 -26.7°
Drops below altitude 10° 23:51:50 10° 337° (NNW) 2,931 6.3 -26.8°
Sets 23:54:22 0° 335° (NNW) 3,891 7.1 -26.7°
